Location: Newark
(7.0858°N, 171.3717°E)
Time: 03:19:14
(UTC+00:00)

Vanguard 2 - Pass Details

Date: 03 December 2020
Orbit: 553 x 2937 km, 32.9° (Epoch: 26 January)

Event Time Altitude Azimuth Distance (km) Brightness Sun altitude
Rises 05:51:42 0° 279° (W) 3,139 11.8 4.8°
Reaches altitude 10° 05:54:02 10° 267° (W) 2,417 11.7 4.3°
Maximum altitude 05:58:58 29° 207° (SSW) 1,847 10.3 3.2°
Drops below altitude 10° 06:06:18 10° 150° (SSE) 3,670 10.9 1.5°
Sets 06:10:48 0° 141° (SE) 5,112 11.6 0.5°
